Fulton, NY

7:40 PM EDT on October 13, 2019 (GMT -0400)
Oswego County

Weather History for KFZY - May, 2019

Change the Weather History Date:

Thursday, May 9, 2019

  Actual Average (WUND) Record (WUND)
Temperature  
Mean Temperature 58 °F -  
Max Temperature 71 °F - - (-1)
Min Temperature 46 °F - - (-1)
Degree Days  
Heating Degree Days 7    
Growing Degree Days 8 (Base 50)    
Moisture  
Dew Point 38 °F    
Average Humidity 48    
Maximum Humidity 78    
Minimum Humidity 32    
Precipitation  
Precipitation 0.04 in - - ()
Sea Level Pressure  
Sea Level Pressure 30.09 in    
Wind  
Wind Speed 7 mph (SE)    
Max Wind Speed 17 mph    
Max Gust Speed 30 mph    
Visibility 10 miles    
Events Rain    
Averages and records for this station are not official NWS values.
T = Trace of Precipitation, MM = Missing Value Source: NWS Daily Summary

Daily Weather History Graph

Daily Weather History Graph

Search for Another Location

Airport or City:

Astronomy

May. 09, 2019 Rise Set
Actual Time 5:48 AM EDT 8:16 PM EDT
Civil Twilight 5:16 AM EDT 8:48 PM EDT
Nautical Twilight 4:36 AM EDT 9:28 PM EDT
Astronomical Twilight 3:51 AM EDT 10:14 PM EDT
Moon 9:38 AM EDT (5/9) 12:16 AM EDT (5/9)
Length of Visible Light 15h 32m
Length of Day
14h 27m
Waxing Crescent, 24% of the Moon is Illuminated
May 9
Waxing Crescent
May 11
First Quarter
May 18
Full
May 26
Last Quarter
Jun 3
New

Hourly Weather History & Observations

Time (EDT) Temp. Dew Point Humidity Pressure Visibility Wind Dir Wind Speed Gust Speed Precip Events Conditions
12:54 AM 46.0 °F 26.1 °F 46% 30.28 in 10.0 mi Calm Calm - N/A   Clear
1:54 AM 48.0 °F 25.0 °F 41% 30.28 in 10.0 mi Variable 3.5 mph - N/A   Clear
2:54 AM 48.9 °F 26.1 °F 41% 30.28 in 10.0 mi East 5.8 mph - N/A   Partly Cloudy
3:54 AM 50.0 °F 24.1 °F 36% 30.27 in 10.0 mi East 6.9 mph 17.3 mph N/A   Overcast
4:54 AM 48.9 °F 24.1 °F 38% 30.24 in 10.0 mi East 9.2 mph - N/A   Mostly Cloudy
5:54 AM 48.9 °F 23.0 °F 36% 30.23 in 10.0 mi Variable 6.9 mph 19.6 mph N/A   Partly Cloudy
6:54 AM 50.0 °F 21.9 °F 33% 30.23 in 10.0 mi Variable 6.9 mph - N/A   Overcast
7:54 AM 50.0 °F 23.0 °F 35% 30.22 in 10.0 mi ESE 9.2 mph 23.0 mph N/A   Mostly Cloudy
8:54 AM 53.1 °F 24.1 °F 32% 30.18 in 10.0 mi ESE 9.2 mph 19.6 mph N/A   Mostly Cloudy
9:54 AM 55.0 °F 26.1 °F 33% 30.15 in 10.0 mi ESE 13.8 mph 21.9 mph N/A   Clear
10:54 AM 59.0 °F 30.0 °F 33% 30.12 in 10.0 mi SE 10.4 mph 17.3 mph N/A   Partly Cloudy
11:54 AM 61.0 °F 33.1 °F 35% 30.09 in 10.0 mi SE 15.0 mph 25.3 mph N/A   Scattered Clouds
12:54 PM 64.0 °F 37.0 °F 37% 30.05 in 10.0 mi SE 11.5 mph 21.9 mph N/A   Mostly Cloudy
1:54 PM 66.9 °F 43.0 °F 42% 30.04 in 10.0 mi SSE 9.2 mph 23.0 mph N/A   Clear
2:54 PM 70.0 °F 46.0 °F 42% 30.02 in 10.0 mi South 15.0 mph 23.0 mph N/A   Clear
3:54 PM 70.0 °F 46.0 °F 42% 29.99 in 10.0 mi SE 8.1 mph 20.7 mph N/A   Partly Cloudy
4:54 PM 69.1 °F 48.9 °F 49% 29.98 in 10.0 mi SSE 12.7 mph 23.0 mph N/A   Mostly Cloudy
5:54 PM 68.0 °F 48.9 °F 50% 29.97 in 10.0 mi Variable 5.8 mph 27.6 mph N/A   Scattered Clouds
6:54 PM 66.0 °F 48.9 °F 54% 29.97 in 10.0 mi South 17.3 mph 27.6 mph N/A   Partly Cloudy
7:54 PM 64.0 °F 51.1 °F 63% 29.97 in 10.0 mi SSE 12.7 mph 29.9 mph 0.00 in Rain Light Rain
8:39 PM 62.1 °F 52.0 °F 70% 29.97 in 10.0 mi Variable 4.6 mph 18.4 mph 0.01 in Rain Light Rain
8:54 PM 62.1 °F 52.0 °F 70% 29.96 in 10.0 mi Variable 6.9 mph - 0.01 in Rain Light Rain
9:21 PM 60.1 °F 52.0 °F 75% 29.96 in 10.0 mi Variable 6.9 mph - 0.01 in Rain Light Rain
9:54 PM 60.1 °F 51.1 °F 72% 29.96 in 10.0 mi SE 5.8 mph - 0.02 in Rain Light Rain
10:54 PM 59.0 °F 52.0 °F 78% 29.95 in 10.0 mi Variable 5.8 mph - 0.01 in   Overcast
11:54 PM 60.1 °F 51.1 °F 72% 29.94 in 10.0 mi Variable 5.8 mph - 0.00 in   Overcast